Weather History for Laramie, WY

Change the Weather History Date:

Saturday, July 27, 2013

  Actual Average Record
Temperature  
Mean Temperature 65 °F 65 °F  
Max Temperature 81 °F 81 °F 91 °F (1978)
Min Temperature 48 °F 49 °F 41 °F (1981)
Degree Days  
Heating Degree Days 0 2  
Month to date heating degree days 11 64  
Since 1 June heating degree days 114 305  
Since 1 July heating degree days 11 64  
Cooling Degree Days 0 1  
Month to date cooling degree days 58 33  
Year to date cooling degree days 94 40  
Since 1 June cooling degree days 94 40  
Growing Degree Days 14 (Base 50)    
Moisture  
Dew Point 46 °F    
Average Humidity 50    
Maximum Humidity 80    
Minimum Humidity 20    
Precipitation  
Precipitation 0.12 in 0.05 in 0.63 in (1956)
Month to date precipitation 1.84 1.23  
Year to date precipitation 5.25 6.72  
Sea Level Pressure  
Sea Level Pressure 29.95 in    
Wind  
Wind Speed 9 mph (SE)    
Max Wind Speed 31 mph    
Max Gust Speed 37 mph    
Visibility 10 miles    
Events Rain , Thunderstorm    
T = Trace of Precipitation, MM = Missing Value Source: NWS Daily Summary

Daily Weather History Graph

Daily Weather History Graph

Search for Another Location

Airport:

Trip Planner

Search our weather history database for the weather conditions in past years. The results will help you decide how hot, cold, wet, or windy it might be!

Date:

Astronomy

Jul. 27, 2013 Rise Set
Actual Time 5:53 AM MDT 8:24 PM MDT
Civil Twilight 5:21 AM MDT 8:55 PM MDT
Nautical Twilight 4:42 AM MDT 9:35 PM MDT
Astronomical Twilight 3:58 AM MDT 10:19 PM MDT
Moon 11:08 PM MDT (7/27) 11:41 AM MDT (7/27)
Length of Visible Light 15h 34m
Length of Day
14h 31m
Waning Gibbous, 70% of the Moon is Illuminated
Jul 27
Waning Gibbous
Jul 29
Last Quarter
Aug 6
New
Aug 14
First Quarter
Aug 20
Full

Hourly Weather History & Observations

Time (MDT) Temp. Dew Point Humidity Pressure Visibility Wind Dir Wind Speed Gust Speed Precip Events Conditions
12:53 AM 55.9 °F 45.0 °F 67% 29.96 in 10.0 mi South 11.5 mph - N/A   Clear
1:53 AM 53.1 °F 44.1 °F 71% 29.95 in 10.0 mi South 6.9 mph - N/A   Clear
2:53 AM 51.1 °F 44.1 °F 77% 29.94 in 10.0 mi SSW 6.9 mph - N/A   Clear
3:53 AM 51.1 °F 43.0 °F 74% 29.94 in 10.0 mi South 9.2 mph - N/A   Clear
4:53 AM 50.0 °F 42.1 °F 74% 29.93 in 10.0 mi SSE 6.9 mph - N/A   Partly Cloudy
5:53 AM 48.0 °F 42.1 °F 80% 29.94 in 10.0 mi SE 6.9 mph - N/A   Clear
6:53 AM 51.1 °F 42.1 °F 71% 29.94 in 10.0 mi Variable 3.5 mph - N/A   Clear
7:53 AM 61.0 °F 42.1 °F 50% 29.92 in 10.0 mi Calm Calm - N/A   Clear
8:53 AM 66.0 °F 41.0 °F 40% 29.91 in 10.0 mi Calm Calm - N/A   Clear
9:53 AM 72.0 °F 39.9 °F 31% 29.88 in 10.0 mi Calm Calm - N/A   Clear
10:53 AM 75.9 °F 35.1 °F 23% 29.86 in 10.0 mi Calm Calm - N/A   Clear
11:53 AM 80.1 °F 36.0 °F 20% 29.85 in 10.0 mi North 6.9 mph - N/A   Clear
12:53 PM 78.1 °F 37.0 °F 23% 29.85 in 10.0 mi NNW 9.2 mph - N/A   Clear
1:53 PM 75.9 °F 48.0 °F 37% 29.86 in 10.0 mi SE 15.0 mph 21.9 mph N/A   Scattered Clouds
2:53 PM 73.0 °F 50.0 °F 44% 29.86 in 10.0 mi ESE 18.4 mph 23.0 mph 0.00 in Rain Light Rain
3:08 PM 71.6 °F 51.8 °F 50% 30.16 in 10.0 mi SSE 24.2 mph - 0.00 in Rain , Thunderstorm Light Thunderstorms and Rain
3:24 PM 64.4 °F 57.2 °F 77% 30.19 in 1.8 mi South 21.9 mph 36.8 mph 0.07 in Rain , Thunderstorm Heavy Thunderstorms and Rain
3:40 PM 62.6 °F 57.2 °F 82% 30.20 in 3.0 mi SSE 23.0 mph 26.5 mph 0.12 in Rain , Thunderstorm Light Thunderstorms and Rain
3:53 PM 64.9 °F 57.0 °F 75% 29.91 in 10.0 mi SSE 21.9 mph 28.8 mph 0.12 in Thunderstorm Thunderstorm
4:01 PM 64.4 °F 57.2 °F 77% 30.19 in 10.0 mi SSE 21.9 mph 29.9 mph N/A   Scattered Clouds
4:53 PM 66.0 °F 53.1 °F 63% 29.91 in 10.0 mi SSE 18.4 mph - N/A   Mostly Cloudy
5:53 PM 63.0 °F 50.0 °F 63% 29.94 in 10.0 mi North - - N/A   Partly Cloudy
6:53 PM 63.0 °F 51.1 °F 65% 29.94 in 10.0 mi ENE 16.1 mph - N/A   Partly Cloudy
7:53 PM 55.9 °F 46.9 °F 72% 29.96 in 10.0 mi NE 19.6 mph - 0.00 in Rain Light Rain
8:53 PM 55.9 °F 46.9 °F 72% 29.93 in 10.0 mi ENE 8.1 mph - 0.00 in   Overcast
9:53 PM 55.0 °F 45.0 °F 69% 29.92 in 10.0 mi ENE 5.8 mph - N/A   Overcast
10:53 PM 55.9 °F 46.0 °F 69% 29.88 in 10.0 mi SW 4.6 mph - N/A   Overcast
11:53 PM 55.0 °F 48.0 °F 77% 29.85 in 10.0 mi South 6.9 mph - N/A   Partly Cloudy